#timestamp,LO_Frequency,Hit,StdDev 
1606705215.1,286046998.5,N
1606705216.0,286046998.5,N
1606705235.8,286047001.2,N
1606705255.7,286046998.4,N
1606705275.5,286047001.0,N
1606705295.3,286047004.3,N
1606705315.2,286047004.4,N
1606705335.0,286047002.4,N
1606705335.9,286047002.4,N
1606705355.8,286046998.1,N
1606705375.6,286047000.7,N
1606705395.4,286047001.1,N
1606705415.3,286047000.6,N
1606705435.1,286046998.1,N
1606705436.0,286046998.1,N
1606705455.8,286046999.3,N
1606705475.7,286046997.2,N
1606705495.5,286046996.7,N
1606705515.3,286046996.6,N
1606705535.2,286046999.6,N
1606705555.0,286046999.1,N
1606705555.9,286046999.1,N
1606705575.8,286046998.3,N
1606705595.6,286046998.8,N
1606705615.4,286047001.2,N
1606705635.3,286047001.2,N
1606705655.1,286047000.7,N
1606705675.8,286046998.3,N
1606705695.7,286047000.8,N
1606705715.5,286046998.3,N
1606705735.4,286047000.5,N
1606705755.2,286047000.8,N
1606705775.0,286046998.1,N
1606705775.9,286046998.1,N
1606705795.8,286046998.5,N
1606705815.6,286047000.5,N
1606705835.4,286046999.9,N
1606705855.3,286047002.4,N
1606705875.1,286046999.9,N
1606705895.9,286047002.1,N
1606705915.7,286046998.1,N
1606705935.5,286047000.9,N
1606705955.4,286047000.9,N
1606705975.2,286047001.0,N
1606705995.0,286047000.5,N
1606705995.9,286047000.5,N
1606706015.8,286047000.6,N
1606706035.6,286046998.5,N
1606706055.5,286046998.3,N
1606706075.3,286046999.4,N
1606706095.1,286046996.7,N
1606706115.9,286046996.9,N
1606706135.7,286046999.4,N
1606706155.5,286046996.6,N
1606706175.4,286046997.2,N
1606706195.2,286046998.1,N
1606706215.1,286046999.0,N
1606706216.0,286046999.0,N
1606706235.8,286046998.3,N
1606706255.6,286047000.8,N
1606706275.5,286047002.2,N
1606706295.3,286047000.3,N
1606706315.1,286047002.1,N
1606706335.9,286047002.2,N
1606706355.7,286047001.6,N
1606706375.6,286047001.6,N
1606706395.4,286047004.3,N
1606706415.2,286047004.1,N
1606706435.1,286047004.1,N
1606706436.0,286047004.1,N
1606706455.8,286047005.4,N
1606706475.6,286047004.8,N
1606706495.5,286047002.9,N
1606706515.3,286047003.2,N
1606706535.2,286047003.4,N
1606706555.9,286047003.0,N
1606706575.7,286047003.2,N
1606706595.6,286047004.4,N
1606706615.4,286047001.8,N
1606706635.2,286047011.9,Y
1606706655.1,286047004.2,P
1606706656.0,286047004.2,N
1606706675.8,286047003.4,N
1606706695.7,286047001.3,N
1606706715.5,286047001.3,N
1606706735.3,286047001.6,N
1606706755.2,286047001.9,N
1606706775.9,286047001.9,N
1606706795.7,286047003.7,Y
1606706815.6,286047000.0,P
1606706835.4,286047002.5,N
1606706855.3,286047002.5,N
1606706875.1,286046999.8,N
1606706876.0,286046999.8,N
1606706895.8,286047000.5,N
1606706915.7,286047001.2,N
1606706935.5,286047000.0,N
1606706955.3,286046999.9,N
1606706975.2,286047000.1,N
1606706995.0,286046999.9,N
1606706995.9,286046999.9,N
1606707015.8,286046999.9,N
1606707035.6,286047002.0,N
1606707055.4,286047002.4,N
1606707075.3,286047004.1,Y
1606707095.1,286047003.9,P
1606707115.8,286047002.2,N
1606707135.7,286047001.1,N
1606707155.5,286046999.7,N
1606707175.4,286047001.3,N
1606707195.2,286047002.1,N
1606707215.0,286047002.0,N
1606707215.9,286047002.0,N
1606707235.8,286047000.3,N
1606707285.6,286047000.3,E
1606707295.6,286046999.9,N
1606707315.4,286047002.7,P
1606707335.2,286047000.5,N
1606707355.1,286047001.0,N
1606707356.0,286047001.0,N
1606707375.8,286046998.1,N
1606707395.6,286047000.3,N
1606707415.5,286047000.3,N
1606707435.3,286046998.6,N
1606707455.2,286046998.5,N
1606707475.9,286047000.2,N
1606707495.7,286046999.9,N
1606707515.6,286047002.4,N
1606707535.4,286046999.2,N
1606707555.2,286046998.5,N
1606707575.1,286047000.5,N
1606707576.0,286047000.5,N
1606707595.8,286047004.3,Y
1606707615.7,286047004.2,P
1606707635.5,286047004.4,N
1606707655.3,286047004.1,N
1606707675.2,286047001.4,N
1606707695.0,286047003.8,N
1606707695.9,286047003.8,N
1606707715.7,286047003.6,N
1606707735.6,286047004.3,N
1606707755.4,286046999.7,N
1606707775.3,286047002.2,N
1606707795.1,286047004.4,N
1606707796.0,286047004.4,N
1606707815.8,286047002.3,N
1606707835.7,286047002.6,N
1606707855.5,286047001.7,N
1606707875.3,286047000.6,N
1606707895.2,286046999.7,N
1606707915.0,286047001.0,N
1606707915.9,286047001.0,N
1606707935.8,286047000.6,N
1606707955.6,286046999.5,N
1606707975.4,286046998.5,N
1606707995.3,286046998.2,N
1606708015.1,286047001.2,N
1606708035.8,286046998.3,N
1606708055.7,286046997.7,N
1606708075.5,286046997.5,N
1606708095.3,286046997.9,N
1606708115.2,286046996.8,N
1606708135.0,286046996.6,N
1606708135.9,286046996.6,N
1606708155.8,286046999.0,N
1606708175.6,286046999.4,N
1606708195.4,286046995.0,N
1606708215.3,286046997.3,N
1606708235.1,286046995.0,N
1606708255.8,286046996.3,N
1606708275.7,286046998.0,N
1606708295.5,286046997.5,N
1606708315.4,286046995.3,N
1606708335.2,286046996.7,N
1606708355.0,286046995.3,N
1606708355.9,286046995.3,N
1606708375.8,286046997.9,N
1606708395.6,286046995.0,N
1606708415.4,286046997.2,N
1606708435.3,286046996.6,N
1606708455.1,286046999.5,N
1606708475.9,286046995.0,N
1606708495.7,286046995.5,N
1606708515.5,286046995.0,Y
1606708535.4,286046997.8,P
1606708555.2,286047001.1,P
1606708575.0,286046998.6,N
1606708575.9,286046998.6,N
1606708595.8,286046998.9,N
1606708615.6,286046996.6,N
1606708635.5,286046998.7,N
1606708655.3,286046999.0,N
1606708675.1,286046998.9,N
1606708695.9,286046999.4,N
1606708715.7,286046998.1,N
1606708735.5,286046999.6,N
1606708755.4,286046997.7,N
1606708775.2,286046997.3,N
1606708795.1,286046996.9,N
1606708796.0,286046996.9,N
